Regional Weather Roundup
Issued by NWS Memphis, TN

Home | Current Version | Previous Version | Text Only | Print | Product List | Glossary On
Versions: 1 2 3 4 5 6 7 8 9 10 11 12 13 14 15 16 17 18 19 20 21 22 23 24 25 26 27 28 29 30 31 32 33 34 35 36 37 38 39 40 41 42 43 44 45 46 47 48 49 50
000
ASUS44 KMEG 120810
RWRMEG
MEMPHIS CWA HOURLY WEATHER ROUNDUP
NATIONAL WEATHER SERVICE MEMPHIS TN
300 AM CDT SAT JUL 12 2014

...WEST TENNESSEE...

CITY           SKY/WX    TMP DP  RH WIND       PRES   REMARKS
MEMPHIS INTL   CLEAR     75  72  90 CALM      30.13F
NWS MEMPHIS      N/A     72 N/A N/A MISG        N/A
JACKSON        CLEAR     68  66  93 CALM      30.14F FOG
LEXINGTON      CLEAR     66  66 100 CALM      30.14S
SILERTON         N/A     67  66  96 CALM        N/A
SAVANNAH       CLEAR     67  67 100 CALM      30.15
DYERSBURG      CLEAR     72  63  73 CALM      30.14S
UNION CITY     CLEAR     70  70 100 CALM      30.13S
PARIS          CLEAR     66  63  90 CALM      30.15F


...EASTERN ARKANSAS...

CITY           SKY/WX    TMP DP  RH WIND       PRES   REMARKS
JONESBORO      PTCLDY    73  71  93 CALM      30.12F
WEST MEMPHIS   CLEAR     73  73 100 CALM      30.12S FOG
BATESVILLE     CLEAR     75  72  88 CALM      30.13S
NEWPORT        MOCLDY    76  74  93 SW6       30.13F
WALNUT RIDGE   CLEAR     75  72  88 SW5       30.12F
BLYTHEVILLE    CLEAR     74  72  93 S3        30.13S
SEARCY         CLEAR     72  72 100 CALM      30.14F FOG
PINE BLUFF     CLEAR     73  71  93 CALM      30.14S
MONTICELLO     CLEAR     71  69  93 W3        30.13F FOG


...NORTH MISSISSIPPI...

CITY           SKY/WX    TMP DP  RH WIND       PRES   REMARKS
TUPELO         CLEAR     73  70  90 CALM      30.13S
OLIVE BRANCH   CLEAR     72 N/A N/A CALM      30.14S
TUNICA           N/A     72  72 100 CALM      30.13F FOG
CLARKSDALE     CLEAR     72  72 100 CALM      30.13F
CORINTH        FOG       68  68 100 CALM      30.14S VSB 1/2
GRENADA        CLEAR     70  70 100 CALM      30.13F
GREENWOOD      CLEAR     72  71  97 CALM      30.12F FOG
COLUMBUS       CLEAR     73  73 100 N1        30.12F
STARKVILLE     CLOUDY    70  70 100 CALM      30.13S FOG
GOLDEN TRIANGL CLEAR     73  70  88 NW5       30.13S


...SOUTHEAST MISSOURI...

CITY           SKY/WX    TMP DP  RH WIND       PRES   REMARKS
WEST PLAINS    PTCLDY    74  72  93 SW5       30.16F
POPLAR BLUFF   CLEAR     74  70  87 CALM      30.11F FOG
CAPE GIRARDEAU PTCLDY    74  68  81 CALM      30.13S


...NORTHWEST ALABAMA...

CITY           SKY/WX    TMP DP  RH WIND       PRES   REMARKS
MUSCLE SHOALS  CLEAR     69  66  90 CALM      30.14F


...MIDDLE TENNESSEE...

CITY           SKY/WX    TMP DP  RH WIND       PRES   REMARKS
NASHVILLE      CLEAR     70  65  84 CALM      30.16S
CLARKSVILLE    CLEAR     67  64  90 CALM      30.15S
DICKSON        CLEAR     70  64  83 CALM      30.16S
COLUMBIA       CLEAR     70  68  94 CALM      30.14F
LEWISBURG      CLEAR     65  62  90 CALM      30.15F


...WESTERN KENTUCKY...

CITY           SKY/WX    TMP DP  RH WIND       PRES   REMARKS
PADUCAH        PTCLDY    71  67  87 CALM      30.13S
FORT CAMPBELL  CLEAR     69  68  99 NE2       30.15S


...CENTRAL ARKANSAS...

CITY           SKY/WX    TMP DP  RH WIND       PRES   REMARKS
LITTLE ROCK    PTCLDY    75  71  87 CALM      30.14S


SKY/WX REPORTED AS FAIR MEANS FEW OR NO CLOUDS BELOW
12 THOUSAND FEET.




USA.gov is the U.S. government's official web portal to all federal, state and local government web resources and services.